| time (UTC) | temp C | wind direction | speed KPH | gust KPH | rain 1hr cm | rain 24hr cm | rain mn cm | humidity % | barometer mb |
| 20260507233339 | 11 | 253 | 8.0 | 14.5 | 0.00 | 0.03 | 0.03 | 49 | |
| 20260507232837 | 11 | 246 | 6.4 | 17.7 | 0.00 | 0.03 | 0.03 | 49 | |
| 20260507232333 | 11 | 190 | 8.0 | 11.3 | 0.00 | 0.03 | 0.03 | 49 | |
| 20260507231831 | 11 | 218 | 14.5 | 27.4 | 0.00 | 0.03 | 0.03 | 47 | |
| 20260507231327 | 11 | 270 | 12.9 | 17.7 | 0.00 | 0.03 | 0.03 | 48 | |
| 20260507230823 | 12 | 272 | 9.7 | 27.4 | 0.00 | 0.03 | 0.03 | 47 | |
| 20260507230321 | 12 | 251 | 3.2 | 11.3 | 0.00 | 0.03 | 0.03 | 48 | |
| 20260507225815 | 12 | 234 | 9.7 | 11.3 | 0.00 | 0.03 | 0.03 | 47 | |
| 20260507225311 | 12 | 276 | 8.0 | 17.7 | 0.00 | 0.03 | 0.03 | 48 | |
| 20260507224807 | 12 | 248 | 17.7 | 20.9 | 0.00 | 0.03 | 0.03 | 46 | |
| 20260507224304 | 12 | 240 | 8.0 | 17.7 | 0.00 | 0.03 | 0.03 | 47 | |
| 20260507223800 | 12 | 243 | 8.0 | 30.6 | 0.00 | 0.03 | 0.03 | 46 | |
| 20260507223257 | 12 | 197 | 19.3 | 32.2 | 0.00 | 0.03 | 0.03 | 46 | |
| 20260507222754 | 11 | 290 | 16.1 | 20.9 | 0.00 | 0.03 | 0.03 | 48 | |
| 20260507222250 | 12 | 248 | 17.7 | 20.9 | 0.00 | 0.03 | 0.03 | 48 | |
| 20260507221748 | 12 | 246 | 16.1 | 27.4 | 0.00 | 0.03 | 0.03 | 47 | |
| 20260507221243 | 12 | 220 | 3.2 | 16.1 | 0.00 | 0.03 | 0.03 | 48 | |
| 20260507220740 | 11 | 264 | 6.4 | 17.7 | 0.00 | 0.03 | 0.03 | 49 | |
| 20260507220239 | 11 | 275 | 9.7 | 16.1 | 0.00 | 0.03 | 0.03 | 50 | |
| 20260507215734 | 12 | 206 | 4.8 | 9.7 | 0.00 | 0.03 | 0.03 | 50 | |
| 20260507215232 | 12 | 232 | 6.4 | 17.7 | 0.00 | 0.03 | 0.03 | 49 | |
| 20260507214729 | 12 | 281 | 6.4 | 11.3 | 0.00 | 0.03 | 0.03 | 49 | |
| 20260507214226 | 12 | 192 | 6.4 | 14.5 | 0.00 | 0.03 | 0.03 | 49 | |
| 20260507213721 | 12 | 263 | 12.9 | 27.4 | 0.00 | 0.03 | 0.03 | 48 | |
| 20260507213219 | 12 | 265 | 9.7 | 22.5 | 0.00 | 0.03 | 0.03 | 47 | |
| 20260507212714 | 12 | 286 | 14.5 | 32.2 | 0.00 | 0.03 | 0.03 | 46 | |
| 20260507212211 | 13 | 260 | 14.5 | 30.6 | 0.00 | 0.03 | 0.03 | 46 | |
| 20260507211708 | 13 | 265 | 8.0 | 16.1 | 0.00 | 0.03 | 0.03 | 47 | |
| 20260507211204 | 13 | 255 | 11.3 | 25.7 | 0.00 | 0.03 | 0.03 | 45 | |
| 20260507210701 | 13 | 258 | 9.7 | 17.7 | 0.00 | 0.03 | 0.03 | 46 | |
| 20260507210158 | 13 | 262 | 16.1 | 22.5 | 0.00 | 0.03 | 0.03 | 46 | |
| 20260507205654 | 13 | 254 | 4.8 | 30.6 | 0.00 | 0.03 | 0.03 | 46 | |
| 20260507205151 | 13 | 196 | 4.8 | 11.3 | 0.00 | 0.03 | 0.03 | 48 | |
| 20260507204647 | 13 | 242 | 9.7 | 14.5 | 0.00 | 0.03 | 0.03 | 49 | |
| 20260507204145 | 14 | 250 | 9.7 | 17.7 | 0.00 | 0.03 | 0.03 | 46 | |
| 20260507203643 | 13 | 255 | 14.5 | 17.7 | 0.00 | 0.03 | 0.03 | 47 | |
| 20260507203140 | 13 | 259 | 4.8 | 14.5 | 0.00 | 0.03 | 0.03 | 47 | |
| 20260507202636 | 13 | 272 | 11.3 | 16.1 | 0.00 | 0.03 | 0.03 | 47 | |
| 20260507202132 | 13 | 220 | 8.0 | 14.5 | 0.00 | 0.03 | 0.03 | 47 | |
| 20260507201627 | 13 | 215 | 6.4 | 9.7 | 0.00 | 0.03 | 0.03 | 47 | |
| 20260507201125 | 13 | 273 | 4.8 | 9.7 | 0.00 | 0.03 | 0.03 | 49 | |
| 20260507200620 | 12 | 266 | 4.8 | 11.3 | 0.00 | 0.03 | 0.03 | 50 | |
| 20260507200116 | 12 | 312 | 12.9 | 22.5 | 0.00 | 0.03 | 0.03 | 48 | |
| 20260507195614 | 12 | 282 | 19.3 | 30.6 | 0.00 | 0.03 | 0.03 | 49 | |
| 20260507195111 | 12 | 273 | 12.9 | 25.7 | 0.00 | 0.03 | 0.03 | 49 | |
| 20260507194607 | 12 | 260 | 9.7 | 11.3 | 0.00 | 0.03 | 0.03 | 48 | |
| 20260507194103 | 12 | 235 | 4.8 | 16.1 | 0.00 | 0.03 | 0.03 | 49 | |
| 20260507193600 | 12 | 284 | 8.0 | 11.3 | 0.00 | 0.03 | 0.03 | 48 | |
| 20260507193057 | 13 | 270 | 9.7 | 17.7 | 0.00 | 0.03 | 0.03 | 48 | |
| 20260507192553 | 12 | 329 | 6.4 | 16.1 | 0.00 | 0.03 | 0.03 | 50 | |
| 20260507192050 | 13 | 202 | 6.4 | 20.9 | 0.00 | 0.03 | 0.03 | 47 | |
| 20260507191546 | 13 | 216 | 8.0 | 20.9 | 0.00 | 0.03 | 0.03 | 53 | |
| 20260507191043 | 13 | 176 | 6.4 | 11.3 | 0.00 | 0.03 | 0.03 | 48 | |
| 20260507190540 | 13 | 291 | 12.9 | 17.7 | 0.00 | 0.03 | 0.03 | 48 | |
| 20260507190039 | 13 | 243 | 9.7 | 16.1 | 0.00 | 0.03 | 0.03 | 47 | |
| 20260507185537 | 12 | 217 | 3.2 | 16.1 | 0.00 | 0.03 | 0.03 | 51 | |
| 20260507185033 | 12 | 201 | 3.2 | 14.5 | 0.00 | 0.03 | 0.03 | 49 | |
| 20260507184532 | 12 | 223 | 9.7 | 16.1 | 0.00 | 0.03 | 0.03 | 50 | |
| 20260507184029 | 13 | 252 | 24.1 | 27.4 | 0.00 | 0.03 | 0.03 | 47 | |
| 20260507183525 | 12 | 257 | 14.5 | 27.4 | 0.00 | 0.03 | 0.03 | 49 | |
| 20260507183022 | 12 | 246 | 4.8 | 16.1 | 0.00 | 0.03 | 0.03 | 51 | |
| 20260507182518 | 12 | 272 | 9.7 | 14.5 | 0.00 | 0.03 | 0.03 | 51 | |
| 20260507182014 | 12 | 220 | 6.4 | 17.7 | 0.00 | 0.03 | 0.03 | 51 | |
| 20260507181511 | 12 | 260 | 14.5 | 20.9 | 0.00 | 0.03 | 0.03 | 50 | |
| 20260507181008 | 12 | 262 | 14.5 | 22.5 | 0.00 | 0.03 | 0.03 | 49 | |
| 20260507180504 | 12 | 277 | 12.9 | 17.7 | 0.00 | 0.03 | 0.03 | 52 | |
| 20260507180000 | 12 | 214 | 8.0 | 14.5 | 0.00 | 0.03 | 0.03 | 51 | |
| 20260507175457 | 12 | 257 | 3.2 | 11.3 | 0.00 | 0.03 | 0.03 | 51 | |
| 20260507174955 | 12 | 189 | 3.2 | 11.3 | 0.00 | 0.03 | 0.03 | 50 | |
| 20260507174452 | 12 | 307 | 14.5 | 16.1 | 0.00 | 0.03 | 0.03 | 53 | |
| 20260507173949 | 12 | 252 | 16.1 | 20.9 | 0.00 | 0.03 | 0.03 | 53 | |
| 20260507173446 | 12 | 238 | 6.4 | 27.4 | 0.00 | 0.03 | 0.03 | 54 | |
| 20260507172943 | 12 | 283 | 11.3 | 17.7 | 0.00 | 0.03 | 0.03 | 53 | |
| 20260507172439 | 12 | 260 | 3.2 | 9.7 | 0.00 | 0.03 | 0.03 | 51 | |
| 20260507171936 | 12 | 221 | 8.0 | 16.1 | 0.00 | 0.03 | 0.03 | 53 | |
| 20260507171432 | 11 | 194 | 1.6 | 6.4 | 0.00 | 0.03 | 0.03 | 53 | |
| 20260507170929 | 12 | 177 | 8.0 | 11.3 | 0.00 | 0.03 | 0.03 | 52 | |
| 20260507170426 | 12 | 205 | 4.8 | 11.3 | 0.00 | 0.03 | 0.03 | 53 | |
| 20260507165922 | 11 | 231 | 8.0 | 11.3 | 0.00 | 0.03 | 0.03 | 53 | |
| 20260507165418 | 11 | 192 | 8.0 | 11.3 | 0.00 | 0.03 | 0.03 | 53 | |
| 20260507164914 | 11 | 249 | 6.4 | 17.7 | 0.00 | 0.03 | 0.03 | 53 | |
| 20260507164412 | 11 | 306 | 6.4 | 11.3 | 0.00 | 0.03 | 0.03 | 56 | |
| 20260507163909 | 11 | 193 | 3.2 | 6.4 | 0.00 | 0.03 | 0.03 | 55 | |
| 20260507163406 | 11 | 189 | 6.4 | 16.1 | 0.00 | 0.03 | 0.03 | 58 | |
| 20260507162902 | 11 | 251 | 8.0 | 17.7 | 0.00 | 0.03 | 0.03 | 55 | |
| 20260507162357 | 11 | 246 | 4.8 | 14.5 | 0.00 | 0.03 | 0.03 | 58 | |
| 20260507161855 | 10 | 163 | 4.8 | 11.3 | 0.00 | 0.03 | 0.03 | 57 | |
| 20260507161351 | 11 | 210 | 8.0 | 11.3 | 0.00 | 0.03 | 0.03 | 58 | |
| 20260507160848 | 11 | 237 | 6.4 | 14.5 | 0.00 | 0.03 | 0.03 | 55 | |
| 20260507160343 | 11 | 179 | 3.2 | 17.7 | 0.00 | 0.03 | 0.03 | 59 | |
| 20260507155840 | 11 | 258 | 6.4 | 16.1 | 0.00 | 0.03 | 0.03 | 58 | |
| 20260507155336 | 11 | 319 | 9.7 | 14.5 | 0.00 | 0.03 | 0.03 | 58 | |
| 20260507154833 | 10 | 269 | 8.0 | 11.3 | 0.00 | 0.03 | 0.03 | 61 | |
| 20260507154330 | 11 | 254 | 6.4 | 17.7 | 0.00 | 0.03 | 0.03 | 60 | |
| 20260507153827 | 10 | 220 | 1.6 | 9.7 | 0.00 | 0.03 | 0.03 | 60 | |
| 20260507153323 | 11 | 266 | 9.7 | 16.1 | 0.00 | 0.03 | 0.03 | 60 | |
| 20260507152820 | 10 | 274 | 3.2 | 9.7 | 0.00 | 0.03 | 0.03 | 61 | |
| 20260507152316 | 10 | 240 | 11.3 | 17.7 | 0.00 | 0.03 | 0.03 | 57 | |
| 20260507151812 | 10 | 268 | 6.4 | 9.7 | 0.00 | 0.03 | 0.03 | 60 | |
| 20260507151309 | 10 | 269 | 14.5 | 20.9 | 0.00 | 0.03 | 0.03 | 59 | |
| 20260507150806 | 10 | 252 | 6.4 | 22.5 | 0.00 | 0.03 | 0.03 | 60 | |
| 20260507150302 | 10 | 171 | 4.8 | 9.7 | 0.00 | 0.03 | 0.03 | 60 | |
| 20260507145759 | 10 | 268 | 4.8 | 11.3 | 0.00 | 0.03 | 0.03 | 58 | |
| 20260507145255 | 10 | 272 | 6.4 | 11.3 | 0.00 | 0.03 | 0.03 | 59 | |
| 20260507144753 | 10 | 231 | 6.4 | 11.3 | 0.00 | 0.03 | 0.03 | 61 | |
| 20260507144250 | 10 | 221 | 9.7 | 11.3 | 0.00 | 0.03 | 0.03 | 65 | |
| 20260507143746 | 10 | 281 | 9.7 | 14.5 | 0.00 | 0.03 | 0.03 | 64 | |
| 20260507143244 | 9 | 236 | 4.8 | 9.7 | 0.00 | 0.03 | 0.03 | 61 | |
| 20260507142739 | 9 | 216 | 4.8 | 6.4 | 0.00 | 0.03 | 0.03 | 65 | |
| 20260507142236 | 9 | 277 | 6.4 | 17.7 | 0.00 | 0.03 | 0.03 | 64 | |
| 20260507141732 | 8 | 255 | 11.3 | 16.1 | 0.00 | 0.03 | 0.03 | 65 | |
| 20260507141230 | 8 | 204 | 1.6 | 9.7 | 0.00 | 0.03 | 0.03 | 67 | |
| 20260507140725 | 8 | 262 | 6.4 | 14.5 | 0.00 | 0.03 | 0.03 | 68 | |
| 20260507140224 | 8 | 205 | 1.6 | 6.4 | 0.00 | 0.03 | 0.03 | 70 | |
| 20260507135720 | 7 | 264 | 9.7 | 16.1 | 0.00 | 0.03 | 0.03 | 71 | |
| 20260507135218 | 8 | 210 | 4.8 | 17.7 | 0.00 | 0.03 | 0.03 | 71 | |
| 20260507134714 | 8 | 209 | 1.6 | 4.8 | 0.00 | 0.03 | 0.03 | 74 | |
| 20260507134210 | 7 | 251 | 8.0 | 9.7 | 0.00 | 0.03 | 0.03 | 73 | |
| 20260507133706 | 7 | 258 | 8.0 | 11.3 | 0.00 | 0.03 | 0.03 | 72 | |
| 20260507133203 | 7 | 245 | 6.4 | 9.7 | 0.00 | 0.03 | 0.03 | 75 | |
| 20260507132700 | 7 | 227 | 3.2 | 6.4 | 0.00 | 0.03 | 0.03 | 77 | |
| 20260507132157 | 7 | 249 | 3.2 | 6.4 | 0.00 | 0.03 | 0.03 | 78 | |
| 20260507131654 | 7 | 203 | 4.8 | 6.4 | 0.00 | 0.03 | 0.03 | 76 | |
| 20260507131151 | 7 | 189 | 0.0 | 1.6 | 0.00 | 0.03 | 0.03 | 78 | |
| 20260507130647 | 6 | 251 | 4.8 | 9.7 | 0.00 | 0.03 | 0.03 | 77 | |
| 20260507130145 | 6 | 215 | 3.2 | 6.4 | 0.00 | 0.03 | 0.03 | 78 | |
| 20260507125644 | 6 | 210 | 0.0 | 1.6 | 0.00 | 0.03 | 0.03 | 78 | |
| 20260507125142 | 6 | 240 | 3.2 | 4.8 | 0.00 | 0.03 | 0.03 | 81 | |
| 20260507124637 | 6 | 192 | 0.0 | 1.6 | 0.00 | 0.03 | 0.03 | 81 | |
| 20260507124135 | 6 | 175 | 0.0 | 0.0 | 0.00 | 0.03 | 0.03 | 79 | |
| 20260507123633 | 6 | 187 | 0.0 | 1.6 | 0.00 | 0.03 | 0.03 | 77 | |
| 20260507123130 | 6 | 212 | 3.2 | 4.8 | 0.00 | 0.03 | 0.03 | 78 | |
| 20260507122625 | 6 | 194 | 0.0 | 1.6 | 0.00 | 0.03 | 0.03 | 78 | |
| 20260507122121 | 6 | 196 | 0.0 | 0.0 | 0.00 | 0.03 | 0.03 | 79 | |
| 20260507121617 | 6 | 219 | 3.2 | 4.8 | 0.00 | 0.03 | 0.03 | 75 | |
| 20260507121113 | 6 | 198 | 0.0 | 1.6 | 0.00 | 0.03 | 0.03 | 78 | |
| 20260507120609 | 6 | 195 | 1.6 | 1.6 | 0.00 | 0.03 | 0.03 | 81 | |
| 20260507120107 | 5 | 193 | 1.6 | 1.6 | 0.00 | 0.03 | 0.03 | 81 | |
| 20260507115603 | 5 | 189 | 0.0 | 1.6 | 0.00 | 0.03 | 0.03 | 81 | |
| 20260507115059 | 5 | 189 | 0.0 | 0.0 | 0.00 | 0.03 | 0.03 | 82 | |
| 20260507114555 | 5 | 189 | 0.0 | 0.0 | 0.00 | 0.03 | 0.03 | 82 | |
| 20260507114052 | 5 | 189 | 0.0 | 0.0 | 0.00 | 0.03 | 0.03 | 84 | |
| 20260507113549 | 5 | 189 | 0.0 | 0.0 | 0.00 | 0.03 | 0.03 | 90 | |
| 20260507113046 | 5 | 189 | 0.0 | 0.0 | 0.00 | 0.03 | 0.03 | 92 | |
| 20260507112544 | 5 | 189 | 0.0 | 0.0 | 0.00 | 0.03 | 0.03 | 93 | |
| 20260507112040 | 5 | 189 | 0.0 | 0.0 | 0.00 | 0.03 | 0.03 | 92 | |
| 20260507111538 | 5 | 189 | 0.0 | 0.0 | 0.00 | 0.03 | 0.03 | 92 | |
| 20260507111034 | 5 | 189 | 0.0 | 0.0 | 0.00 | 0.03 | 0.03 | 93 | |
| 20260507110531 | 5 | 190 | 0.0 | 1.6 | 0.00 | 0.03 | 0.03 | 93 | |
| 20260507110027 | 5 | 189 | 0.0 | 0.0 | 0.00 | 0.03 | 0.03 | 94 | |
| 20260507105525 | 5 | 190 | 0.0 | 0.0 | 0.00 | 0.03 | 0.03 | 95 | |
| 20260507105020 | 5 | 190 | 0.0 | 1.6 | 0.00 | 0.03 | 0.03 | 97 | |
| 20260507104518 | 5 | 187 | 0.0 | 1.6 | 0.00 | 0.03 | 0.03 | 98 | |
| 20260507104015 | 5 | 162 | 0.0 | 0.0 | 0.00 | 0.03 | 0.03 | 98 | |
| 20260507103505 | 5 | 165 | 0.0 | 0.0 | 0.00 | 0.03 | 0.03 | 98 | |
| 20260507103001 | 5 | 165 | 0.0 | 0.0 | 0.00 | 0.03 | 0.03 | 98 | |
| 20260507102458 | 5 | 163 | 0.0 | 0.0 | 0.00 | 0.03 | 0.03 | 98 | |
| 20260507101954 | 5 | 171 | 1.6 | 1.6 | 0.00 | 0.03 | 0.03 | 99 | |
| 20260507101449 | 5 | 188 | 0.0 | 0.0 | 0.00 | 0.03 | 0.03 | 99 | |
| 20260507100946 | 5 | 163 | 0.0 | 0.0 | 0.00 | 0.03 | 0.03 | 99 | |
| 20260507100443 | 5 | 174 | 0.0 | 1.6 | 0.00 | 0.03 | 0.03 | 99 | |
| 20260507095942 | 5 | 164 | 0.0 | 1.6 | 0.00 | 0.03 | 0.03 | 99 | |
| 20260507095438 | 5 | 167 | 0.0 | 0.0 | 0.00 | 0.03 | 0.03 | 99 | |
| 20260507094935 | 5 | 187 | 0.0 | 0.0 | 0.00 | 0.03 | 0.03 | 99 | |
| 20260507094431 | 5 | 187 | 0.0 | 0.0 | 0.00 | 0.03 | 0.03 | 99 | |
| 20260507093929 | 5 | 187 | 0.0 | 0.0 | 0.00 | 0.03 | 0.03 | 99 | |
| 20260507093427 | 5 | 190 | 0.0 | 0.0 | 0.00 | 0.03 | 0.03 | 99 | |
| 20260507092925 | 5 | 186 | 0.0 | 0.0 | 0.00 | 0.03 | 0.03 | 99 | |
| 20260507092421 | 5 | 192 | 0.0 | 1.6 | 0.00 | 0.03 | 0.03 | 99 | |
| 20260507091917 | 5 | 180 | 0.0 | 0.0 | 0.00 | 0.03 | 0.03 | 99 | |
| 20260507091414 | 5 | 180 | 0.0 | 0.0 | 0.00 | 0.03 | 0.03 | 99 | |
| 20260507090910 | 5 | 180 | 0.0 | 0.0 | 0.00 | 0.03 | 0.03 | 99 | |
| 20260507090406 | 5 | 189 | 0.0 | 0.0 | 0.00 | 0.03 | 0.03 | 99 | |
| 20260507085903 | 5 | 189 | 0.0 | 0.0 | 0.00 | 0.03 | 0.03 | 98 | |
| 20260507085400 | 5 | 189 | 0.0 | 0.0 | 0.00 | 0.03 | 0.03 | 98 | |
| 20260507084857 | 5 | 193 | 0.0 | 0.0 | 0.00 | 0.03 | 0.03 | 98 | |
| 20260507084354 | 5 | 179 | 0.0 | 0.0 | 0.00 | 0.03 | 0.03 | 98 | |
| 20260507083851 | 5 | 179 | 0.0 | 0.0 | 0.00 | 0.03 | 0.03 | 98 | |
| 20260507083347 | 5 | 179 | 0.0 | 0.0 | 0.00 | 0.03 | 0.03 | 98 | |
| 20260507082844 | 5 | 179 | 0.0 | 0.0 | 0.00 | 0.03 | 0.03 | 98 | |
| 20260507082339 | 5 | 190 | 0.0 | 0.0 | 0.00 | 0.03 | 0.03 | 98 | |
| 20260507081837 | 5 | 190 | 0.0 | 0.0 | 0.00 | 0.03 | 0.03 | 98 | |
| 20260507081332 | 5 | 231 | 4.8 | 4.8 | 0.00 | 0.03 | 0.03 | 98 | |
| 20260507080830 | 5 | 191 | 0.0 | 1.6 | 0.00 | 0.03 | 0.03 | 99 | |
| 20260507080326 | 5 | 192 | 0.0 | 1.6 | 0.00 | 0.03 | 0.03 | 99 | |
| 20260507075821 | 5 | 199 | 1.6 | 1.6 | 0.00 | 0.03 | 0.03 | 99 | |
| 20260507075317 | 5 | 181 | 1.6 | 4.8 | 0.00 | 0.03 | 0.03 | 99 | |
| 20260507074814 | 5 | 166 | 3.2 | 6.4 | 0.00 | 0.03 | 0.03 | 99 | |
| 20260507074312 | 5 | 215 | 4.8 | 6.4 | 0.18 | 0.03 | 0.03 | 99 | |
| 20260507073809 | 6 | 189 | 3.2 | 4.8 | 0.18 | 0.03 | 0.03 | 99 | |
| 20260507073305 | 6 | 119 | 3.2 | 6.4 | 0.00 | 0.00 | 0.00 | 99 | |
| 20260507072802 | 6 | 164 | 0.0 | 1.6 | 0.00 | 0.00 | 0.00 | 99 | |
| 20260507072300 | 7 | 207 | 1.6 | 4.8 | 0.00 | 0.00 | 0.00 | 99 | |
| 20260507071757 | 7 | 199 | 1.6 | 4.8 | 0.00 | 0.00 | 0.00 | 99 | |
| 20260507071253 | 7 | 192 | 0.0 | 1.6 | 0.00 | 0.00 | 0.00 | 99 | |
| 20260507070750 | 7 | 216 | 3.2 | 4.8 | 0.00 | 0.00 | 0.00 | 99 | |
| 20260507070247 | 7 | 192 | 0.0 | 0.0 | 0.00 | 0.00 | 0.00 | 99 | |
| 20260507065744 | 7 | 192 | 0.0 | 0.0 | 0.00 | 0.00 | 0.00 | 99 | |
| 20260507065241 | 7 | 197 | 0.0 | 0.0 | 0.00 | 0.00 | 0.00 | 99 | |
| 20260507064738 | 7 | 198 | 0.0 | 1.6 | 0.00 | 0.00 | 0.00 | 99 | |
| 20260507064237 | 7 | 199 | 0.0 | 1.6 | 0.00 | 0.00 | 0.00 | 99 | |
| 20260507063734 | 6 | 198 | 0.0 | 1.6 | 0.00 | 0.00 | 0.00 | 99 | |
| 20260507063230 | 6 | 192 | 0.0 | 1.6 | 0.00 | 0.00 | 0.00 | 99 | |
| 20260507062727 | 7 | 182 | 0.0 | 0.0 | 0.00 | 0.00 | 0.00 | 99 | |
| 20260507062225 | 7 | 169 | 0.0 | 0.0 | 0.00 | 0.00 | 0.00 | 99 | |
| 20260507061723 | 7 | 177 | 0.0 | 1.6 | 0.00 | 0.00 | 0.00 | 99 | |
| 20260507061221 | 6 | 167 | 0.0 | 0.0 | 0.00 | 0.00 | 0.00 | 99 | |
| 20260507060719 | 7 | 204 | 1.6 | 4.8 | 0.00 | 0.00 | 0.00 | 99 | |
| 20260507060215 | 7 | 167 | 0.0 | 0.0 | 0.00 | 0.00 | 0.00 | 99 | |
| 20260507055711 | 7 | 174 | 0.0 | 0.0 | 0.00 | 0.00 | 0.00 | 99 | |
| 20260507055207 | 7 | 201 | 1.6 | 1.6 | 0.00 | 0.00 | 0.00 | 99 | |
| 20260507054703 | 7 | 191 | 0.0 | 0.0 | 0.00 | 0.00 | 0.00 | 99 | |
| 20260507054200 | 7 | 201 | 1.6 | 4.8 | 0.00 | 0.00 | 0.00 | 99 | |
| 20260507053658 | 7 | 212 | 1.6 | 1.6 | 0.00 | 0.00 | 0.00 | 99 | |
| 20260507053155 | 6 | 192 | 0.0 | 1.6 | 0.00 | 0.00 | 0.00 | 99 | |
| 20260507052654 | 6 | 192 | 0.0 | 1.6 | 0.00 | 0.00 | 0.00 | 99 | |
| 20260507052149 | 6 | 188 | 0.0 | 1.6 | 0.00 | 0.00 | 0.00 | 99 | |
| 20260507051647 | 6 | 200 | 0.0 | 1.6 | 0.00 | 0.00 | 0.00 | 99 | |
| 20260507051144 | 6 | 192 | 0.0 | 1.6 | 0.00 | 0.00 | 0.00 | 99 | |
| 20260507050641 | 7 | 197 | 0.0 | 0.0 | 0.00 | 0.00 | 0.00 | 99 | |
| 20260507050137 | 6 | 194 | 0.0 | 1.6 | 0.00 | 0.00 | 0.00 | 99 | |
| 20260507045634 | 6 | 197 | 0.0 | 4.8 | 0.00 | 0.00 | 0.00 | 99 | |
| 20260507045126 | 6 | 210 | 1.6 | 1.6 | 0.00 | 0.00 | 0.00 | 99 | |
| 20260507044623 | 6 | 207 | 3.2 | 4.8 | 0.00 | 0.00 | 0.00 | 99 | |
| 20260507044120 | 6 | 192 | 0.0 | 0.0 | 0.00 | 0.00 | 0.00 | 99 | |
| 20260507043616 | 6 | 192 | 1.6 | 1.6 | 0.00 | 0.00 | 0.00 | 99 | |
| 20260507043113 | 6 | 188 | 0.0 | 1.6 | 0.00 | 0.00 | 0.00 | 99 | |
| 20260507042608 | 6 | 194 | 0.0 | 1.6 | 0.00 | 0.00 | 0.00 | 99 | |
| 20260507042103 | 6 | 193 | 0.0 | 1.6 | 0.00 | 0.00 | 0.00 | 99 | |
| 20260507041600 | 6 | 188 | 1.6 | 1.6 | 0.00 | 0.00 | 0.00 | 99 | |
| 20260507041058 | 6 | 166 | 0.0 | 0.0 | 0.00 | 0.00 | 0.00 | 99 | |
| 20260507040554 | 6 | 161 | 0.0 | 1.6 | 0.00 | 0.00 | 0.00 | 99 | |
| 20260507040050 | 6 | 70 | 1.6 | 4.8 | 0.00 | 1.27 | 1.27 | 99 | |
| 20260507035547 | 6 | 170 | 0.0 | 1.6 | 0.00 | 1.27 | 1.27 | 99 | |
| 20260507035043 | 6 | 185 | 0.0 | 4.8 | 0.00 | 1.27 | 1.27 | 99 | |
| 20260507034540 | 6 | 199 | 0.0 | 1.6 | 0.18 | 1.27 | 1.27 | 99 | |
| 20260507034038 | 7 | 168 | 0.0 | 0.0 | 0.18 | 1.27 | 1.27 | 99 | |
| 20260507033535 | 7 | 188 | 0.0 | 1.6 | 0.00 | 1.24 | 1.24 | 99 | |
| 20260507033032 | 7 | 182 | 0.0 | 4.8 | 0.00 | 1.24 | 1.24 | 99 | |
| 20260507032529 | 7 | 182 | 1.6 | 4.8 | 0.00 | 1.24 | 1.24 | 99 | |
| 20260507032025 | 7 | 158 | 3.2 | 4.8 | 0.00 | 1.24 | 1.24 | 99 | |
| 20260507031521 | 7 | 134 | 0.0 | 1.6 | 0.00 | 1.24 | 1.24 | 99 | |
| 20260507031019 | 7 | 177 | 0.0 | 1.6 | 0.00 | 1.24 | 1.24 | 99 | |
| 20260507030516 | 7 | 95 | 3.2 | 4.8 | 0.00 | 1.24 | 1.24 | 99 | |
| 20260507030009 | 7 | 249 | 3.2 | 4.8 | 0.13 | 1.24 | 1.24 | 99 | |
| 20260507025505 | 7 | 155 | 1.6 | 1.6 | 0.13 | 1.24 | 1.24 | 99 | |
| 20260507025003 | 7 | 158 | 0.0 | 0.0 | 0.18 | 1.22 | 1.22 | 99 | |
| 20260507024500 | 7 | 162 | 0.0 | 0.0 | 0.30 | 1.22 | 1.22 | 99 | |
| 20260507023956 | 7 | 199 | 3.2 | 4.8 | 0.13 | 1.19 | 1.19 | 99 | |
| 20260507023453 | 7 | 200 | 1.6 | 6.4 | 0.00 | 1.17 | 1.17 | 99 | |
| 20260507022950 | 7 | 178 | 3.2 | 4.8 | 0.00 | 1.17 | 1.17 | 99 | |
| 20260507022447 | 7 | 186 | 1.6 | 4.8 | 0.00 | 1.17 | 1.17 | 99 | |
| 20260507021942 | 7 | 176 | 4.8 | 4.8 | 0.00 | 1.17 | 1.17 | 99 | |
| 20260507021438 | 7 | 205 | 1.6 | 4.8 | 0.00 | 1.17 | 1.17 | 99 | |
| 20260507020936 | 7 | 193 | 3.2 | 4.8 | 0.00 | 1.17 | 1.17 | 99 | |
| 20260507020432 | 7 | 186 | 1.6 | 6.4 | 0.00 | 1.17 | 1.17 | 99 | |
| 20260507015929 | 7 | 185 | 1.6 | 4.8 | 0.00 | 1.17 | 1.17 | 99 | |
| 20260507015427 | 7 | 189 | 0.0 | 1.6 | 0.00 | 1.17 | 1.17 | 99 | |
| 20260507014924 | 7 | 157 | 1.6 | 1.6 | 0.00 | 1.17 | 1.17 | 99 | |
| 20260507014420 | 7 | 212 | 3.2 | 4.8 | 0.00 | 1.17 | 1.17 | 99 | |
| 20260507013917 | 8 | 192 | 1.6 | 4.8 | 0.00 | 1.17 | 1.17 | 99 | |
| 20260507013414 | 8 | 172 | 1.6 | 6.4 | 0.18 | 1.17 | 1.17 | 99 | |
| 20260507012912 | 8 | 334 | 6.4 | 6.4 | 0.18 | 1.17 | 1.17 | 99 | |
| 20260507012408 | 8 | 128 | 3.2 | 4.8 | 0.00 | 1.14 | 1.14 | 99 | |
| 20260507011905 | 8 | 193 | 1.6 | 4.8 | 0.00 | 1.14 | 1.14 | 99 | |
| 20260507011401 | 8 | 192 | 1.6 | 1.6 | 0.00 | 1.14 | 1.14 | 99 | |
| 20260507010901 | 8 | 197 | 0.0 | 4.8 | 0.00 | 1.14 | 1.14 | 99 | |
| 20260507010351 | 8 | 194 | 0.0 | 1.6 | 0.00 | 1.14 | 1.14 | 99 | |
| 20260507005848 | 8 | 200 | 1.6 | 4.8 | 0.00 | 1.14 | 1.14 | 99 | |
| 20260507005345 | 8 | 199 | 1.6 | 4.8 | 0.00 | 1.14 | 1.14 | 99 | |
| 20260507004836 | 8 | 287 | 3.2 | 9.7 | 0.00 | 1.14 | 1.14 | 99 | |
| 20260507004333 | 8 | 1 | 6.4 | 6.4 | 0.00 | 1.14 | 1.14 | 99 | |
| 20260507003831 | 8 | 202 | 3.2 | 6.4 | 0.00 | 1.14 | 1.14 | 99 | |
| 20260507003326 | 8 | 205 | 4.8 | 4.8 | 0.00 | 1.14 | 1.14 | 99 | |
| 20260507002820 | 8 | 191 | 0.0 | 1.6 | 0.00 | 1.14 | 1.14 | 99 | |
| 20260507002317 | 8 | 186 | 0.0 | 4.8 | 0.00 | 1.14 | 1.14 | 99 | |
| 20260507001809 | 8 | 200 | 0.0 | 6.4 | 0.00 | 1.14 | 1.14 | 99 | |
| 20260507001306 | 8 | 196 | 0.0 | 1.6 | 0.00 | 1.14 | 1.14 | 99 | |
| 20260507000802 | 8 | 201 | 3.2 | 6.4 | 0.00 | 1.14 | 1.14 | 99 | |
| 20260507000258 | 8 | 223 | 4.8 | 9.7 | 0.00 | 1.14 | 1.14 | 99 | |
| 20260506235749 | 8 | 204 | 3.2 | 4.8 | 0.00 | 1.14 | 1.14 | 99 | |
| 20260506235244 | 8 | 146 | 0.0 | 1.6 | 0.00 | 1.14 | 1.14 | 99 | |
| 20260506234742 | 8 | 191 | 1.6 | 4.8 | 0.00 | 1.14 | 1.14 | 99 | |
| 20260506234239 | 8 | 195 | 1.6 | 1.6 | 0.00 | 1.14 | 1.14 | 99 | |
| 20260506233737 | 8 | 221 | 3.2 | 4.8 | 0.00 | 1.14 | 1.14 | 99 |